EB5ETD Weather Reports


Display with metric or nautical units.
time (UTC)temp
F
wind
direction
speed
MPH
gust
MPH
rain 1hr
in
rain 24hr
in
rain mn
in
humidity
%
barometer
mb
20260903163504 93 53 2.0 5.0 0.00 0.00 0.00 50 1026.6
20260903163003 93 32 2.0 5.0 0.00 0.00 0.00 46 1026.7
20260903162504 93 43 2.0 5.0 0.00 0.00 0.00 47 1026.8
20260903161503 93 76 2.0 7.0 0.00 0.00 0.00 48 1026.9
20260903161004 94 67 3.0 7.0 0.00 0.00 0.00 50 1026.8
20260903160504 94 84 0.0 5.0 0.00 0.00 0.00 49 1026.8
20260903155503 94 61 3.0 7.0 0.00 0.00 0.00 49 1026.7
20260903155004 94 68 2.0 5.0 0.00 0.00 0.00 49 1026.8
20260903154504 93 55 2.0 6.0 0.00 0.00 0.00 49 1026.9
20260903153003 93 66 5.0 8.0 0.00 0.00 0.00 51 1027.0
20260903152505 93 50 4.0 8.0 0.00 0.00 0.00 51 1027.1
20260903152003 93 52 3.0 8.0 0.00 0.00 0.00 50 1027.0
20260903151504 93 32 5.0 9.0 0.00 0.00 0.00 51 1027.1
20260903151004 93 56 6.0 9.0 0.00 0.00 0.00 50 1027.0
20260903150004 93 44 5.0 8.0 0.00 0.00 0.00 50 1027.1
20260903145504 93 65 5.0 7.0 0.00 0.00 0.00 48 1027.0
20260903144004 95 46 4.0 8.0 0.00 0.00 0.00 47 1027.0
20260903143504 95 60 2.0 7.0 0.00 0.00 0.00 47 1027.0
20260903143004 94 44 3.0 7.0 0.00 0.00 0.00 47 1027.1
20260903142503 93 50 3.0 8.0 0.00 0.00 0.00 48 1027.2
20260903141503 93 60 3.0 7.0 0.00 0.00 0.00 47 1027.3
20260903141004 94 62 3.0 7.0 0.00 0.00 0.00 47 1027.3
20260903140505 93 58 2.0 9.0 0.00 0.00 0.00 48 1027.2
20260903140004 93 57 6.0 10.0 0.00 0.00 0.00 48 1027.3
20260903135504 92 40 3.0 9.0 0.00 0.00 0.00 49 1027.5
20260903135004 92 42 2.0 9.0 0.00 0.00 0.00 49 1027.4
20260903134004 93 61 3.0 8.0 0.00 0.00 0.00 48 1027.6
20260903133505 93 58 5.0 9.0 0.00 0.00 0.00 48 1027.6
20260903133004 92 42 2.0 9.0 0.00 0.00 0.00 49 1027.7
20260903132504 93 53 4.0 8.0 0.00 0.00 0.00 48 1027.6
20260903132004 92 44 5.0 12.0 0.00 0.00 0.00 48 1027.8
20260903131504 93 61 4.0 9.0 0.00 0.00 0.00 47 1027.7
20260903131004 93 54 4.0 8.0 0.00 0.00 0.00 49 1027.7
20260903130503 92 45 5.0 10.0 0.00 0.00 0.00 48 1027.8
20260903125003 91 60 5.0 8.0 0.00 0.00 0.00 49 1027.8
20260903124503 91 64 5.0 12.0 0.00 0.00 0.00 47 1028.0
20260903124003 91 54 2.0 9.0 0.00 0.00 0.00 48 1028.0
20260903123504 91 43 6.0 9.0 0.00 0.00 0.00 49 1027.9
20260903123003 92 68 4.0 8.0 0.00 0.00 0.00 47 1027.8
20260903122503 92 54 3.0 10.0 0.00 0.00 0.00 47 1028.0
20260903121503 90 53 2.0 6.0 0.00 0.00 0.00 48 1028.2
20260903121004 91 51 4.0 8.0 0.00 0.00 0.00 48 1028.1
20260903120504 91 44 3.0 7.0 0.00 0.00 0.00 47 1028.3
20260903115504 89 40 5.0 8.0 0.00 0.00 0.00 49 1028.5
20260903115004 90 57 5.0 8.0 0.00 0.00 0.00 49 1028.4
20260903114504 90 144 2.0 7.0 0.00 0.00 0.00 48 1028.4
20260903114003 89 123 3.0 7.0 0.00 0.00 0.00 49 1028.5
20260903113503 89 50 2.0 8.0 0.00 0.00 0.00 50 1028.6
20260903113004 89 48 6.0 9.0 0.00 0.00 0.00 50 1028.6
20260903112004 90 57 5.0 8.0 0.00 0.00 0.00 46 1028.6
20260903111504 89 70 2.0 6.0 0.00 0.00 0.00 47 1028.8
20260903111004 89 54 3.0 6.0 0.00 0.00 0.00 47 1028.7
20260903110504 88 53 4.0 8.0 0.00 0.00 0.00 48 1028.8
20260903110004 88 56 4.0 6.0 0.00 0.00 0.00 48 1028.8
20260903105504 87 45 3.0 8.0 0.00 0.00 0.00 48 1029.0
20260903105004 87 50 4.0 7.0 0.00 0.00 0.00 48 1029.1
20260903104504 87 45 3.0 7.0 0.00 0.00 0.00 48 1029.2
20260903104005 87 39 3.0 10.0 0.00 0.00 0.00 48 1029.2
20260903103505 86 57 2.0 7.0 0.00 0.00 0.00 49 1029.4
20260903103004 87 33 3.0 7.0 0.00 0.00 0.00 48 1029.4
20260903102504 86 54 4.0 7.0 0.00 0.00 0.00 50 1029.6
20260903102004 86 67 3.0 6.0 0.00 0.00 0.00 50 1029.4
20260903101503 86 43 3.0 6.0 0.00 0.00 0.00 51 1029.5
20260903100503 84 58 3.0 6.0 0.00 0.00 0.00 53 1029.7
20260903095504 85 60 2.0 6.0 0.00 0.00 0.00 55 1029.6
20260903095004 84 39 3.0 7.0 0.00 0.00 0.00 58 1029.7
20260903094504 84 85 2.0 5.0 0.00 0.00 0.00 57 1029.6
20260903094004 82 42 4.0 6.0 0.00 0.00 0.00 58 1029.7
20260903093504 82 58 4.0 7.0 0.00 0.00 0.00 61 1029.6
20260903092504 82 60 3.0 6.0 0.00 0.00 0.00 63 1029.6
20260903092004 81 57 3.0 7.0 0.00 0.00 0.00 64 1029.6
20260903091518 81 56 3.0 6.0 0.00 0.00 0.00 64 1029.7
20260903091043 81 57 3.0 7.0 0.00 0.00 0.00 67 1029.7
20260903090539 81 49 3.0 7.0 0.00 0.00 0.00 67 1029.7
20260903090004 81 38 3.0 6.0 0.00 0.00 0.00 66 1029.5
20260903085504 81 41 3.0 6.0 0.00 0.00 0.00 65 1029.5
20260903085003 81 69 1.0 6.0 0.00 0.00 0.00 64 1029.2
20260903084504 81 100 1.0 3.0 0.00 0.00 0.00 61 1029.4
20260903084004 80 71 1.0 5.0 0.00 0.00 0.00 62 1029.3
20260903083504 81 62 2.0 3.0 0.00 0.00 0.00 62 1029.3
20260903083004 81 81 1.0 2.0 0.00 0.00 0.00 63 1029.4
20260903082503 80 89 1.0 2.0 0.00 0.00 0.00 64 1029.4
20260903081503 78 230 0.0 2.0 0.00 0.00 0.00 68 1029.4
20260903081004 77 230 1.0 2.0 0.00 0.00 0.00 71 1029.4
20260903080504 76 231 1.0 2.0 0.00 0.00 0.00 73 1029.7
20260903080004 76 231 1.0 2.0 0.00 0.00 0.00 73 1029.5
20260903075504 77 231 0.0 1.0 0.00 0.00 0.00 72 1029.4
20260903075004 76 231 1.0 1.0 0.00 0.00 0.00 75 1029.6
20260903073503 73 232 0.0 1.0 0.00 0.00 0.00 81 1029.8
20260903073004 72 232 0.0 2.0 0.00 0.00 0.00 82 1029.7
20260903072004 72 228 1.0 1.0 0.00 0.00 0.00 82 1029.8
20260903071004 70 229 1.0 2.0 0.00 0.00 0.00 86 1029.9
20260903070004 70 233 2.0 5.0 0.00 0.00 0.00 87 1029.9
20260903065504 71 178 2.0 3.0 0.00 0.00 0.00 85 1029.8
20260903063003 70 241 1.0 2.0 0.00 0.00 0.00 83 1029.6
20260903062504 71 241 1.0 2.0 0.00 0.00 0.00 83 1029.4
20260903061004 70 217 0.0 1.0 0.00 0.00 0.00 82 1029.4
20260903060504 69 217 1.0 1.0 0.00 0.00 0.00 82 1029.3
20260903060004 70 217 1.0 1.0 0.00 0.00 0.00 82 1029.3
20260903055504 70 216 1.0 1.0 0.00 0.00 0.00 82 1029.2
20260903055004 69 217 0.0 1.0 0.00 0.00 0.00 82 1029.1
20260903054504 69 217 0.0 1.0 0.00 0.00 0.00 82 1028.9
20260903054004 69 199 0.0 1.0 0.00 0.00 0.00 82 1028.8
20260903053504 69 215 1.0 1.0 0.00 0.00 0.00 82 1028.6
20260903053004 69 230 1.0 2.0 0.00 0.00 0.00 83 1028.7
20260903052004 69 206 1.0 2.0 0.00 0.00 0.00 83 1028.6
20260903051503 69 224 1.0 2.0 0.00 0.00 0.00 83 1028.5
20260903051004 69 226 1.0 2.0 0.00 0.00 0.00 82 1028.2
20260903050503 69 226 0.0 1.0 0.00 0.00 0.00 82 1028.4
20260903050004 69 226 0.0 1.0 0.00 0.00 0.00 81 1028.1
20260903045504 69 226 0.0 0.0 0.00 0.00 0.00 84 1028.1
20260903045003 69 226 0.0 2.0 0.00 0.00 0.00 84 1028.1
20260903044504 68 226 1.0 2.0 0.00 0.00 0.00 83 1028.1
20260903044004 69 225 1.0 1.0 0.00 0.00 0.00 86 1027.9
20260903043504 69 225 0.0 1.0 0.00 0.00 0.00 87 1028.0
20260903043004 69 225 0.0 1.0 0.00 0.00 0.00 87 1028.0
20260903042504 69 224 0.0 1.0 0.00 0.00 0.00 87 1028.0
20260903042004 68 224 1.0 2.0 0.00 0.00 0.00 87 1028.0
20260903041504 68 248 1.0 2.0 0.00 0.00 0.00 87 1028.0
20260903041004 68 207 0.0 1.0 0.00 0.00 0.00 88 1028.0
20260903035504 68 204 1.0 2.0 0.00 0.00 0.00 89 1028.0
20260903034504 69 49 0.0 0.0 0.00 0.00 0.00 91 1027.8
20260903033503 69 50 1.0 1.0 0.00 0.00 0.00 91 1028.0
20260903033003 69 49 1.0 1.0 0.00 0.00 0.00 91 1028.1
20260903032504 69 49 0.0 1.0 0.00 0.00 0.00 91 1028.0
20260903032004 69 48 0.0 3.0 0.00 0.00 0.00 92 1027.9
20260903031003 70 222 0.0 2.0 0.00 0.00 0.00 93 1027.8
20260903030503 70 218 1.0 3.0 0.00 0.00 0.00 92 1027.7
20260903030004 70 240 2.0 5.0 0.00 0.00 0.00 92 1028.1
20260903025504 70 232 1.0 5.0 0.00 0.00 0.00 91 1027.9
20260903025004 70 251 2.0 3.0 0.00 0.00 0.00 90 1027.7
20260903024505 70 245 1.0 2.0 0.00 0.00 0.00 91 1028.1
20260903024004 71 258 2.0 3.0 0.00 0.00 0.00 91 1027.9
20260903023503 71 243 2.0 5.0 0.00 0.00 0.00 91 1028.0
20260903023003 71 259 2.0 3.0 0.00 0.00 0.00 91 1027.9
20260903022504 71 266 2.0 3.0 0.00 0.00 0.00 91 1027.8
20260903022004 71 252 2.0 3.0 0.00 0.00 0.00 91 1027.9
20260903021503 71 249 1.0 2.0 0.00 0.00 0.00 91 1028.0
20260903021003 71 229 1.0 3.0 0.00 0.00 0.00 91 1027.8
20260903020504 72 194 1.0 5.0 0.00 0.00 0.00 90 1027.9
20260903020004 72 210 2.0 3.0 0.00 0.00 0.00 89 1027.9
20260903015504 72 245 1.0 2.0 0.00 0.00 0.00 88 1028.0
20260903015003 70 245 0.0 1.0 0.00 0.00 0.00 86 1028.0
20260903014504 72 244 0.0 1.0 0.00 0.00 0.00 89 1027.8
20260903014004 73 243 1.0 2.0 0.00 0.00 0.00 90 1027.9
20260903013503 73 252 1.0 2.0 0.00 0.00 0.00 88 1027.8
20260903012504 72 81 1.0 2.0 0.00 0.00 0.00 86 1028.0
20260903012004 72 287 1.0 2.0 0.00 0.00 0.00 86 1027.9
20260903011004 72 237 0.0 2.0 0.00 0.00 0.00 84 1028.1
20260903010503 72 242 1.0 2.0 0.00 0.00 0.00 84 1028.1
20260903005504 72 305 0.0 2.0 0.00 0.00 0.00 86 1028.0
20260903004505 73 61 1.0 3.0 0.00 0.00 0.00 88 1028.0
20260903004005 72 329 1.0 2.0 0.00 0.00 0.00 88 1028.1
20260903003504 73 57 1.0 3.0 0.00 0.00 0.00 89 1028.1
20260903002504 74 357 1.0 2.0 0.00 0.00 0.00 90 1028.0
20260903002004 73 76 1.0 2.0 0.00 0.00 0.00 90 1028.3
20260903001503 72 67 0.0 1.0 0.00 0.00 0.00 90 1028.3
20260903000504 73 334 1.0 2.0 0.00 0.00 0.00 92 1028.2
20260903000004 73 302 0.0 2.0 0.00 0.00 0.00 92 1028.4
20260902235004 73 323 1.0 2.0 0.00 0.00 0.00 93 1028.5
20260902234504 73 82 0.0 1.0 0.00 0.00 0.00 93 1028.4
20260902234004 73 83 1.0 2.0 0.00 0.00 0.00 93 1028.5
20260902233503 73 63 2.0 2.0 0.00 0.00 0.00 93 1028.3
20260902232504 73 159 0.0 2.0 0.00 0.00 0.00 93 1028.6
20260902232003 73 88 1.0 3.0 0.00 0.00 0.00 92 1028.6
20260902231504 74 87 1.0 3.0 0.00 0.00 0.00 92 1028.8
20260902231004 74 56 1.0 2.0 0.00 0.00 0.00 92 1028.8
20260902230505 74 63 1.0 3.0 0.00 0.00 0.00 92 1028.8
20260902230004 74 56 2.0 3.0 0.00 0.00 0.00 92 1028.8
20260902225504 74 60 1.0 2.0 0.00 0.00 0.00 92 1028.8
20260902224004 74 73 1.0 3.0 0.00 0.00 0.00 91 1028.9
20260902223004 74 85 1.0 2.0 0.00 0.00 0.00 91 1028.8
20260902222004 74 81 1.0 1.0 0.00 0.00 0.00 91 1028.6
20260902221504 74 81 0.0 1.0 0.00 0.00 0.00 91 1028.4
20260902221004 74 81 0.0 0.0 0.00 0.00 0.00 90 1028.6
20260902220503 74 81 0.0 1.0 0.00 0.00 0.00 90 1028.5
20260902220004 74 81 0.0 1.0 0.00 0.00 0.00 90 1028.6
20260902215504 74 81 0.0 2.0 0.00 0.00 0.00 90 1028.6
20260902214504 75 71 1.0 3.0 0.00 0.00 0.00 89 1028.6
20260902214004 75 70 1.0 3.0 0.00 0.00 0.00 89 1028.5
20260902213503 75 89 1.0 1.0 0.00 0.00 0.00 88 1028.5
20260902213004 75 67 1.0 2.0 0.00 0.00 0.00 88 1028.4
20260902212504 75 63 1.0 3.0 0.00 0.00 0.00 87 1028.6
20260902212003 75 85 1.0 1.0 0.00 0.00 0.00 87 1028.5
20260902211504 75 86 1.0 2.0 0.00 0.00 0.00 87 1028.4
20260902211004 75 56 1.0 3.0 0.00 0.00 0.00 87 1028.5
20260902210503 76 51 2.0 3.0 0.00 0.00 0.00 86 1028.6
20260902210004 76 56 1.0 3.0 0.00 0.00 0.00 85 1028.4
20260902205503 76 53 1.0 5.0 0.00 0.00 0.00 85 1028.5
20260902205004 77 100 2.0 3.0 0.00 0.00 0.00 83 1028.3
20260902204504 77 22 0.0 0.0 0.00 0.00 0.00 82 1028.3
20260902204004 77 22 0.0 2.0 0.00 0.00 0.00 81 1028.2
20260902203504 78 73 1.0 3.0 0.00 0.00 0.00 81 1028.1
20260902203004 78 84 2.0 2.0 0.00 0.00 0.00 81 1028.1
20260902202503 78 50 1.0 2.0 0.00 0.00 0.00 81 1028.0
20260902201508 78 50 0.0 1.0 0.00 0.00 0.00 80 1028.3
20260902201004 78 50 1.0 2.0 0.00 0.00 0.00 80 1028.1
20260902200504 78 49 1.0 2.0 0.00 0.00 0.00 80 1028.0
20260902200004 78 82 1.0 1.0 0.00 0.00 0.00 80 1027.8
20260902195503 78 82 1.0 2.0 0.00 0.00 0.00 80 1027.7
20260902195004 78 82 1.0 1.0 0.00 0.00 0.00 80 1027.8
20260902194504 78 82 0.0 1.0 0.00 0.00 0.00 80 1027.8
20260902194003 79 82 1.0 2.0 0.00 0.00 0.00 79 1027.8
20260902193504 79 83 1.0 2.0 0.00 0.00 0.00 79 1027.6
20260902193005 79 84 1.0 2.0 0.00 0.00 0.00 79 1027.5
20260902192504 79 78 1.0 1.0 0.00 0.00 0.00 78 1027.5
20260902191004 80 72 1.0 3.0 0.00 0.00 0.00 77 1027.2
20260902190003 80 67 1.0 5.0 0.00 0.00 0.00 76 1027.1
20260902185504 80 69 1.0 3.0 0.00 0.00 0.00 76 1027.2
20260902185004 80 66 2.0 5.0 0.00 0.00 0.00 76 1027.2
20260902184503 81 72 1.0 3.0 0.00 0.00 0.00 75 1026.9
20260902184004 81 59 2.0 5.0 0.00 0.00 0.00 75 1027.0
20260902183504 81 39 1.0 3.0 0.00 0.00 0.00 75 1027.0
20260902183004 81 70 2.0 5.0 0.00 0.00 0.00 74 1027.0
20260902182504 82 87 1.0 3.0 0.00 0.00 0.00 74 1027.0
20260902182004 82 127 2.0 5.0 0.00 0.00 0.00 73 1026.8
20260902181503 82 42 1.0 6.0 0.00 0.00 0.00 73 1027.0
20260902181004 83 51 2.0 7.0 0.00 0.00 0.00 72 1026.9
20260902180504 83 77 2.0 5.0 0.00 0.00 0.00 71 1026.8
20260902180006 84 61 2.0 6.0 0.00 0.00 0.00 70 1026.6
20260902175504 84 74 1.0 3.0 0.00 0.00 0.00 69 1026.7
20260902175004 84 53 2.0 3.0 0.00 0.00 0.00 69 1026.5
20260902174504 85 58 2.0 7.0 0.00 0.00 0.00 68 1026.5
20260902174004 85 57 1.0 6.0 0.00 0.00 0.00 67 1026.4
20260902173505 86 48 2.0 6.0 0.00 0.00 0.00 66 1026.5
20260902173004 87 51 3.0 5.0 0.00 0.00 0.00 65 1026.2
20260902172503 87 85 2.0 6.0 0.00 0.00 0.00 64 1026.3
20260902172004 88 54 2.0 6.0 0.00 0.00 0.00 64 1026.1
20260902171504 88 60 1.0 5.0 0.00 0.00 0.00 63 1026.1
20260902171004 89 65 1.0 3.0 0.00 0.00 0.00 62 1026.1
20260902170504 89 68 1.0 5.0 0.00 0.00 0.00 61 1026.0
20260902170003 89 56 2.0 5.0 0.00 0.00 0.00 61 1026.1
20260902165503 89 59 3.0 6.0 0.00 0.00 0.00 61 1026.0
20260902165005 90 48 2.0 7.0 0.00 0.00 0.00 60 1025.9
20260902164504 90 62 1.0 3.0 0.00 0.00 0.00 59 1025.9
20260902164004 90 24 2.0 5.0 0.00 0.00 0.00 60 1025.9